{"data":{"norad_id":67420,"epoch":"2026-05-25T01:08:21.166080Z","epoch_age_seconds":71145,"freshness":"FRESH","line1":"1 67420U 26005S   26145.04746720  .00020188  00000+0  74029-3 0  9993","line2":"2 67420  43.0008 166.8223 0001274 273.5711  86.4995 15.27616759 20376","mean_motion":15.27616759,"eccentricity":0.0001274,"inclination_deg":43.0008,"raan_deg":166.8223,"arg_perigee_deg":273.5711,"mean_anomaly_deg":86.4995,"bstar":0.00074029,"rev_number":2037,"period_min":94.264480375474,"perigee_km":482.06492749081,"apogee_km":483.81312966289,"semimajor_km":6861.0760285768,"source":"CELESTRAK","updated_at":"2026-05-25T13:38:21.555873Z"}}